Tracking 25686 objects as of 25-May-2022
HD Live streaming from Space Station
objects crossing your sky now

STORK-5 (MARTA)

Track STORK-5 (MARTA) now!
10-day predictions


NORAD ID: 48872
Int'l Code: 2021-058B
Perigee: 474.9 km
Apogee: 525.2 km
Inclination: 60.7 °
Period: 94.5 minutes
Semi major axis: 6871 km
RCS: Unknown
Launch date: June 30, 2021
Source: POLAND (POL)
Launch site: Pegasus launched from Western Range Air Space (WRAS)
aabbcc
Your satellite tracking list
Your tracking list is empty




NASA's NSSDC Master Catalog

Two Line Element Set (TLE):
1 48872U 21058B   22145.48962218  .00022550  00000-0  90750-3 0  9997
2 48872  60.7004  74.0509 0036632 129.6262 348.6521 15.24283457 50039
Source of the keplerian elements: AFSPC